Location: *
(45.4590°N, 16.3650°E)
Time: 12:15:48
(UTC+00:00)

Cosmos 1689 Rocket - Pass Details

Date: 17 January 2020
Orbit: 371 x 387 km, 97.5° (Epoch: 20 February)

Event Time Altitude Azimuth Distance (km) Brightness Sun altitude
Rises 16:06:53 0° 4° (N) 2,243 5.7 -5.1°
Reaches altitude 10° 16:08:55 10° 356° (N) 1,386 4.7 -5.4°
Maximum altitude 16:11:39 35° 288° (WNW) 625 3.7 -5.9°
Drops below altitude 10° 16:14:21 10° 220° (SW) 1,375 6.0 -6.3°
Sets 16:16:22 0° 211° (SSW) 2,220 6.9 -6.6°
